Hourly Weather Roundup
Issued by NWS Central Illinois

Home | Current Version | Previous Version | Text Only | Print | Product List | Glossary On
Versions: 1 2 3 4 5 6 7 8 9 10 11 12 13 14 15 16 17 18 19 20 21 22 23 24 25 26 27 28 29 30 31 32 33 34 35 36 37 38 39 40 41 42 43 44 45 46 47 48 49 50
000
NZUS43 KILX 221610
HWRILX

AREA WEATHER ROUNDUP
NATIONAL WEATHER SERVICE, LINCOLN IL
1100 AM CDT FRI AUG 22 2014


CITY           SKY/WX    TMP DP  RH WIND       PRES   REMARKS
BLOOMINGTON    LGT RAIN  71  70  97 S9        30.01F
CHAMPAIGN      LGT RAIN  73  71  93 W10       30.02R
DECATUR        LGT RAIN  76  73  91 NE5       30.03R
FLORA          PTSUNNY   82  74  74 SW6       30.03S HX  88
GALESBURG      CLOUDY    74  74  99 SE3       29.98S
JACKSONVILLE   LGT RAIN  82  75  80 SE5       30.02R HX  89
LACON          CLOUDY    72  70  96 S5        29.97F
LAWRENCEVILLE  PTSUNNY   83  74  74 W8        30.02F HX  89
LITCHFIELD     MOSUNNY   82  73  73 CALM      30.02S HX  88
$$


CITY           SKY/WX    TMP DP  RH WIND       PRES   REMARKS
LINCOLN        LGT RAIN  74  73  95 S6        29.98F
MACOMB         CLOUDY    76  76 100 SE3       30.02R
MATTOON        CLOUDY    78  73  84 SE5       30.00F HX  81
MT CARMEL AP   PTSUNNY   86  75  70 W3        30.02F HX  95
OLNEY-NOBLE AP PTSUNNY   84  75  74 W5        30.03S HX  92
PARIS          CLOUDY    77  74  92 SW3       30.01S
PEORIA         LGT RAIN  74  71  91 SW5       30.00R
PONTIAC        CLOUDY    75  73  94 W7        29.99F
RANTOUL        CLOUDY    75  71  86 SW8       30.00R
ROBINSON       CLOUDY    84  77  80 W3        30.03S HX  94
SPRINGFIELD    CLOUDY    78  73  84 SE9       30.01S HX  81
TAYLORVILLE    CLOUDY    79  72  78 E8        30.02F HX  82
$$

...REGIONAL REPORTS...


CITY           SKY/WX    TMP DP  RH WIND       PRES   REMARKS
CHICAGO O`HARE CLOUDY    79  74  84 W7        29.96R HX  82
KANKAKEE       CLOUDY    76  73  89 SW9       30.00R
MOLINE         CLOUDY    73  72  96 S7        29.96R
MOUNT VERNON   PTSUNNY   84  73  70 SW8       30.04S HX  91
PITTSFIELD     CLOUDY    81  73  78 SE3       30.01R HX  85
QUINCY         LGT RAIN  77  73  87 CALM      30.00R FOG
ROCKFORD       CLOUDY    78  73  84 SW13      29.97S HX  81
$$


CITY           SKY/WX    TMP DP  RH WIND       PRES   REMARKS
BURLINGTON     CLOUDY    77  75  93 S12       29.98R
CEDAR RAPIDS   PTSUNNY   79  73  82 W6        29.94R HX  82
DES MOINES     PTSUNNY   82  72  71 SE5       29.94R HX  87
KIRKSVILLE     PTSUNNY   82  75  79 SW6       29.98R HX  89
OTTUMWA        MOSUNNY   80  71  74 S7        29.93R HX  84
ST LOUIS       PTSUNNY   90  74  59 NW9       30.01S HX  99
$$


CITY           SKY/WX    TMP DP  RH WIND       PRES   REMARKS
TERRE HAUTE    CLOUDY    81  73  76 CALM      30.00F HX  86
EVANSVILLE     PTSUNNY   85  74  69 W6        30.04F HX  92
INDIANAPOLIS   CLOUDY    76  72  87 SE3       30.00F
LAFAYETTE      CLOUDY    75  73  93 SW5       30.00R
MADISON        PTSUNNY   79  73  82 S5        29.95S HX  82
MILWAUKEE      CLOUDY    72  69  90 E6        29.98R FOG
$$




USA.gov is the U.S. government's official web portal to all federal, state and local government web resources and services.